Total_Precipitation_Accumulation
0.53 0.53 0.53 0.52 0.52 0.55 0.62 0.63 0.65 0.67 0.69 0.70 0.73 0.76 0.81 0.85 0.90 0.95 0.99 1.08 1.13 1.17 1.23 1.35 1.44 1.58 1.57 1.48 1.53 1.63 1.76 1.86 1.67 1.64 1.61 1.42 1.32 1.18 1.07 1.01 0.88 0.80 0.66
0.47 0.48 0.50 0.48 0.45 0.47 0.49 0.50 0.53 0.57 0.60 0.61 0.64 0.66 0.71 0.77 0.86 0.95 1.01 1.07 1.09 1.09 1.13 1.24 1.29 1.36 1.46 1.42 1.37 1.38 1.55 1.71 1.71 1.71 1.83 1.76 1.53 1.36 1.25 1.13 0.93 0.78 0.72
0.47 0.47 0.44 0.47 0.48 0.46 0.40 0.39 0.40 0.44 0.51 0.50 0.50 0.53 0.59 0.69 0.80 0.87 0.92 0.96 1.04 1.11 1.09 1.09 1.10 1.17 1.35 1.48 1.47 1.45 1.50 1.61 1.72 1.73 1.85 1.89 1.68 1.47 1.45 1.30 1.14 1.10 0.82
0.43 0.42 0.41 0.40 0.40 0.43 0.41 0.37 0.36 0.38 0.43 0.46 0.48 0.53 0.57 0.63 0.70 0.74 0.74 0.74 0.77 0.86 0.90 0.89 0.87 0.89 1.06 1.32 1.41 1.53 1.57 1.57 1.68 1.73 1.83 1.94 1.96 1.75 1.66 1.52 1.39 1.29 1.10
0.45 0.42 0.41 0.40 0.37 0.35 0.33 0.31 0.31 0.31 0.31 0.36 0.41 0.48 0.53 0.55 0.53 0.55 0.59 0.55 0.55 0.54 0.57 0.61 0.63 0.66 0.68 0.81 1.02 1.28 1.47 1.55 1.59 1.71 1.79 1.88 1.91 1.91 1.66 1.54 1.49 1.47 1.39
0.36 0.35 0.37 0.38 0.37 0.37 0.31 0.27 0.27 0.28 0.30 0.34 0.37 0.38 0.41 0.40 0.43 0.44 0.44 0.43 0.41 0.40 0.39 0.40 0.40 0.41 0.43 0.50 0.59 0.80 1.04 1.29 1.53 1.69 1.76 1.80 1.84 1.87 1.81 1.70 1.62 1.51 1.52
0.28 0.31 0.33 0.37 0.40 0.38 0.30 0.26 0.26 0.27 0.30 0.34 0.36 0.38 0.38 0.41 0.36 0.35 0.38 0.36 0.35 0.35 0.36 0.37 0.30 0.26 0.31 0.38 0.43 0.48 0.61 0.76 0.93 1.30 1.57 1.61 1.67 1.74 1.88 1.85 1.78 1.74 1.70
0.31 0.36 0.38 0.38 0.41 0.41 0.35 0.33 0.33 0.34 0.34 0.37 0.40 0.40 0.41 0.39 0.33 0.29 0.28 0.28 0.34 0.39 0.36 0.37 0.35 0.31 0.31 0.36 0.43 0.45 0.42 0.46 0.55 0.68 0.86 1.03 1.23 1.52 1.74 1.88 1.99 2.05 2.10
0.37 0.42 0.43 0.43 0.44 0.45 0.44 0.45 0.47 0.49 0.43 0.39 0.42 0.45 0.45 0.45 0.36 0.30 0.29 0.29 0.35 0.40 0.38 0.38 0.39 0.36 0.30 0.26 0.34 0.43 0.43 0.43 0.44 0.51 0.58 0.75 0.91 1.11 1.38 1.58 1.71 1.87 2.16
0.37 0.38 0.38 0.43 0.49 0.51 0.54 0.57 0.59 0.61 0.54 0.48 0.46 0.50 0.52 0.53 0.43 0.30 0.29 0.33 0.40 0.45 0.45 0.43 0.40 0.35 0.30 0.25 0.30 0.39 0.42 0.41 0.45 0.50 0.51 0.53 0.60 0.70 0.89 1.10 1.23 1.41 1.67
0.38 0.39 0.41 0.44 0.50 0.54 0.63 0.70 0.74 0.72 0.69 0.63 0.58 0.58 0.61 0.56 0.47 0.30 0.29 0.36 0.45 0.54 0.54 0.52 0.50 0.41 0.29 0.27 0.30 0.37 0.38 0.43 0.52 0.59 0.63 0.65 0.63 0.61 0.65 0.79 0.96 1.03 1.13
0.43 0.43 0.43 0.49 0.42 0.43 0.64 0.75 0.81 0.84 0.78 0.72 0.72 0.69 0.69 0.66 0.51 0.38 0.30 0.35 0.45 0.62 0.68 0.66 0.61 0.48 0.38 0.32 0.31 0.31 0.32 0.34 0.44 0.55 0.62 0.67 0.67 0.60 0.58 0.67 0.84 0.98 0.99
0.54 0.56 0.57 0.56 0.57 0.62 0.72 0.78 0.81 0.84 0.83 0.77 0.80 0.79 0.78 0.78 0.70 0.45 0.36 0.37 0.41 0.57 0.68 0.67 0.61 0.49 0.44 0.40 0.39 0.37 0.33 0.35 0.43 0.49 0.53 0.61 0.63 0.60 0.62 0.73 0.86 1.00 1.04
0.64 0.65 0.69 0.73 0.72 0.74 0.86 0.89 0.86 0.87 0.89 0.85 0.85 0.85 0.85 0.86 0.86 0.75 0.60 0.52 0.51 0.53 0.59 0.64 0.64 0.58 0.51 0.50 0.49 0.43 0.39 0.42 0.48 0.49 0.52 0.60 0.69 0.71 0.72 0.71 0.80 0.89 1.01
0.71 0.69 0.73 0.81 0.88 0.90 0.90 0.90 0.86 0.88 0.83 0.81 0.82 0.83 0.86 0.85 0.78 0.70 0.71 0.71 0.69 0.67 0.70 0.79 0.83 0.75 0.68 0.65 0.64 0.61 0.58 0.54 0.50 0.53 0.58 0.64 0.70 0.73 0.74 0.78 0.80 0.83 0.82
0.81 0.76 0.75 0.77 0.84 0.88 0.88 0.76 0.63 0.60 0.53 0.50 0.54 0.60 0.63 0.60 0.58 0.56 0.57 0.59 0.63 0.71 0.75 0.82 0.92 0.95 0.89 0.81 0.76 0.75 0.72 0.65 0.58 0.58 0.61 0.63 0.66 0.70 0.72 0.79 0.84 0.83 0.81
0.82 0.80 0.78 0.78 0.82 0.85 0.85 0.83 0.76 0.66 0.56 0.50 0.48 0.46 0.48 0.49 0.53 0.54 0.56 0.58 0.60 0.66 0.73 0.82 0.92 0.98 1.01 0.98 0.90 0.81 0.78 0.71 0.66 0.65 0.65 0.67 0.67 0.70 0.73 0.76 0.80 0.83 0.82
0.73 0.73 0.73 0.75 0.77 0.79 0.81 0.86 0.89 0.84 0.79 0.72 0.61 0.53 0.45 0.43 0.47 0.52 0.57 0.62 0.65 0.65 0.72 0.84 0.94 0.98 1.03 1.03 0.95 0.91 0.86 0.80 0.74 0.71 0.70 0.71 0.69 0.71 0.73 0.73 0.75 0.75 0.78
0.72 0.71 0.70 0.71 0.72 0.72 0.77 0.85 0.89 0.86 0.87 0.85 0.78 0.67 0.56 0.50 0.50 0.57 0.59 0.63 0.69 0.71 0.74 0.86 0.94 0.98 0.97 0.94 0.91 0.89 0.83 0.78 0.75 0.73 0.72 0.71 0.70 0.71 0.74 0.76 0.75 0.77 0.78
0.76 0.75 0.80 0.79 0.74 0.71 0.75 0.84 0.87 0.88 0.89 0.91 0.91 0.77 0.64 0.59 0.64 0.69 0.65 0.65 0.67 0.67 0.71 0.81 0.90 0.93 0.91 0.87 0.84 0.78 0.77 0.76 0.73 0.71 0.72 0.71 0.72 0.72 0.69 0.70 0.73 0.70 0.70
0.83 0.77 0.76 0.75 0.74 0.73 0.78 0.85 0.91 0.91 0.88 0.88 0.87 0.70 0.60 0.60 0.65 0.66 0.64 0.64 0.61 0.60 0.66 0.78 0.85 0.85 0.82 0.78 0.76 0.71 0.68 0.70 0.68 0.66 0.69 0.71 0.72 0.71 0.66 0.64 0.66 0.65 0.64
0.91 0.85 0.76 0.71 0.71 0.76 0.80 0.85 0.90 0.85 0.80 0.81 0.80 0.67 0.57 0.59 0.62 0.61 0.58 0.56 0.54 0.52 0.56 0.65 0.73 0.76 0.72 0.67 0.66 0.67 0.66 0.65 0.67 0.65 0.65 0.67 0.70 0.67 0.63 0.64 0.65 0.65 0.68
0.89 0.86 0.81 0.74 0.68 0.71 0.75 0.80 0.81 0.76 0.73 0.72 0.72 0.66 0.62 0.64 0.59 0.52 0.51 0.50 0.51 0.53 0.53 0.56 0.60 0.62 0.60 0.58 0.60 0.63 0.63 0.60 0.60 0.62 0.64 0.65 0.65 0.60 0.58 0.60 0.59 0.62 0.66
0.82 0.83 0.81 0.73 0.64 0.63 0.70 0.77 0.77 0.75 0.75 0.71 0.64 0.60 0.59 0.61 0.56 0.48 0.46 0.48 0.49 0.49 0.49 0.51 0.49 0.48 0.50 0.52 0.53 0.53 0.52 0.48 0.49 0.55 0.56 0.58 0.61 0.57 0.57 0.57 0.54 0.57 0.67
0.76 0.77 0.78 0.74 0.64 0.59 0.68 0.77 0.77 0.72 0.69 0.65 0.58 0.56 0.55 0.54 0.54 0.52 0.49 0.48 0.47 0.47 0.43 0.44 0.46 0.44 0.44 0.44 0.44 0.43 0.39 0.37 0.38 0.42 0.46 0.50 0.55 0.57 0.56 0.57 0.57 0.60 0.66
0.75 0.73 0.72 0.69 0.62 0.58 0.64 0.72 0.73 0.67 0.65 0.59 0.51 0.49 0.51 0.52 0.53 0.53 0.50 0.47 0.46 0.43 0.40 0.40 0.41 0.39 0.36 0.37 0.35 0.30 0.26 0.25 0.28 0.32 0.36 0.43 0.51 0.57 0.55 0.55 0.56 0.59 0.60